Location: Melara
(45.0500°N, 11.1833°E)
Time: 23:03:51
(UTC+00:00)

Cosmos 292 Rocket - Pass Details

Date: 26 May 2022
Orbit: 674 x 692 km, 74.0° (Epoch: 02 July)

Event Time Altitude Azimuth Distance (km) Brightness Sun altitude
Exits shadow 01:48:19 23° 199° (SSW) 1,451 4.9 -14.9°
Maximum altitude 01:51:21 89° 119° (ESE) 690 3.7 -14.6°
Drops below altitude 10° 01:56:10 10° 21° (NNE) 2,131 7.5 -14.1°
Sets 01:58:28 0° 22° (NNE) 3,047 8.6 -13.8°
